Year,Month,Day,Hour,Minute,Value (Times are PST for temperature in C)
2021,01,24,00,00,-18.80
2021,01,24,00,01,-18.80
2021,01,24,00,02,-18.80
2021,01,24,00,03,-18.80
2021,01,24,00,04,-18.80
2021,01,24,00,05,-18.80
2021,01,24,00,06,-18.80
2021,01,24,00,07,-18.80
2021,01,24,00,08,-18.80
2021,01,24,00,09,-18.80
2021,01,24,00,10,-18.80
2021,01,24,00,11,-18.80
2021,01,24,00,12,-18.80
2021,01,24,00,13,-18.80
2021,01,24,00,14,-18.80
2021,01,24,00,15,-18.80
2021,01,24,00,16,-18.80
2021,01,24,00,17,-18.80
2021,01,24,00,18,-18.80
2021,01,24,00,19,-18.80
2021,01,24,00,20,-18.70
2021,01,24,00,21,-18.70
2021,01,24,00,22,-18.70
2021,01,24,00,23,-18.70
2021,01,24,00,24,-18.70
2021,01,24,00,25,-18.70
2021,01,24,00,26,-18.70
2021,01,24,00,27,-18.70
2021,01,24,00,28,-18.70
2021,01,24,00,29,-18.70
2021,01,24,00,30,-18.70
2021,01,24,00,31,-18.70
2021,01,24,00,32,-18.70
2021,01,24,00,33,-18.70
2021,01,24,00,34,-18.70
2021,01,24,00,35,-18.70
2021,01,24,00,36,-18.70
2021,01,24,00,37,-18.70
2021,01,24,00,38,-18.70
2021,01,24,00,39,-18.70
2021,01,24,00,40,-18.70
2021,01,24,00,41,-18.70
2021,01,24,00,42,-18.70
2021,01,24,00,43,-18.70
2021,01,24,00,44,-18.70
2021,01,24,00,45,-18.70
2021,01,24,00,46,-18.70
2021,01,24,00,47,-18.70
2021,01,24,00,48,-18.60
2021,01,24,00,49,-18.60
2021,01,24,00,50,-18.60
2021,01,24,00,51,-18.60
2021,01,24,00,52,-18.60
2021,01,24,00,53,-18.60
2021,01,24,00,54,-18.60
2021,01,24,00,55,-18.60
2021,01,24,00,56,-18.60
2021,01,24,00,57,-18.60
2021,01,24,00,58,-18.60
2021,01,24,00,59,-18.60
2021,01,24,01,00,-18.60
2021,01,24,01,01,-18.60
2021,01,24,01,02,-18.60
2021,01,24,01,03,-18.60
2021,01,24,01,04,-18.60
2021,01,24,01,05,-18.60
2021,01,24,01,06,-18.60
2021,01,24,01,07,-18.60
2021,01,24,01,08,-18.60
2021,01,24,01,09,-18.50
2021,01,24,01,10,-18.50
2021,01,24,01,11,-18.50
2021,01,24,01,12,-18.50
2021,01,24,01,13,-18.50
2021,01,24,01,14,-18.50
2021,01,24,01,15,-18.50
2021,01,24,01,16,-18.50
2021,01,24,01,17,-18.50
2021,01,24,01,18,-18.50
2021,01,24,01,19,-18.50
2021,01,24,01,20,-18.50
2021,01,24,01,21,-18.50
2021,01,24,01,22,-18.50
2021,01,24,01,23,-18.50
2021,01,24,01,24,-18.50
2021,01,24,01,25,-18.50
2021,01,24,01,26,-18.50
2021,01,24,01,27,-18.50
2021,01,24,01,28,-18.50
2021,01,24,01,29,-18.50
2021,01,24,01,30,-18.50
2021,01,24,01,31,-18.50
2021,01,24,01,32,-18.40
2021,01,24,01,33,-18.40
2021,01,24,01,34,-18.40
2021,01,24,01,35,-18.40
2021,01,24,01,36,-18.40
2021,01,24,01,37,-18.40
2021,01,24,01,38,-18.40
2021,01,24,01,39,-18.40
2021,01,24,01,40,-18.40
2021,01,24,01,41,-18.40
2021,01,24,01,42,-18.40
2021,01,24,01,43,-18.40
2021,01,24,01,44,-18.30
2021,01,24,01,45,-18.30
2021,01,24,01,46,-18.30
2021,01,24,01,47,-18.30
2021,01,24,01,48,-18.30
2021,01,24,01,49,-18.30
2021,01,24,01,50,-18.30
2021,01,24,01,51,-18.30
2021,01,24,01,52,-18.30
2021,01,24,01,53,-18.30
2021,01,24,01,54,-18.30
2021,01,24,01,55,-18.30
2021,01,24,01,56,-18.30
2021,01,24,01,57,-18.30
2021,01,24,01,58,-18.30
2021,01,24,01,59,-18.30
2021,01,24,02,00,-18.30
2021,01,24,02,01,-18.30
2021,01,24,02,02,-18.30
2021,01,24,02,03,-18.30
2021,01,24,02,04,-18.30
2021,01,24,02,05,-18.30
2021,01,24,02,06,-18.30
2021,01,24,02,07,-18.30
2021,01,24,02,08,-18.30
2021,01,24,02,09,-18.30
2021,01,24,02,10,-18.30
2021,01,24,02,11,-18.30
2021,01,24,02,12,-18.30
2021,01,24,02,13,-18.30
2021,01,24,02,14,-18.30
2021,01,24,02,15,-18.30
2021,01,24,02,16,-18.40
2021,01,24,02,17,-18.40
2021,01,24,02,18,-18.40
2021,01,24,02,19,-18.40
2021,01,24,02,20,-18.40
2021,01,24,02,21,-18.40
2021,01,24,02,22,-18.40
2021,01,24,02,23,-18.40
2021,01,24,02,24,-18.30
2021,01,24,02,25,-18.30
2021,01,24,02,26,-18.30
2021,01,24,02,27,-18.30
2021,01,24,02,28,-18.30
2021,01,24,02,29,-18.30
2021,01,24,02,30,-18.30
2021,01,24,02,31,-18.30
2021,01,24,02,32,-18.30
2021,01,24,02,33,-18.30
2021,01,24,02,34,-18.30
2021,01,24,02,35,-18.30
2021,01,24,02,36,-18.30
2021,01,24,02,37,-18.30
2021,01,24,02,38,-18.30
2021,01,24,02,39,-18.30
2021,01,24,02,40,-18.30
2021,01,24,02,41,-18.30
2021,01,24,02,42,-18.30
2021,01,24,02,43,-18.30
2021,01,24,02,44,-18.30
2021,01,24,02,45,-18.20
2021,01,24,02,46,-18.20
2021,01,24,02,47,-18.30
2021,01,24,02,48,-18.20
2021,01,24,02,49,-18.20
2021,01,24,02,50,-18.20
2021,01,24,02,51,-18.20
2021,01,24,02,52,-18.20
2021,01,24,02,53,-18.20
2021,01,24,02,54,-18.20
2021,01,24,02,55,-18.20
2021,01,24,02,56,-18.20
2021,01,24,02,57,-18.30
2021,01,24,02,58,-18.30
2021,01,24,02,59,-18.30
2021,01,24,03,00,-18.30
2021,01,24,03,01,-18.30
2021,01,24,03,02,-18.30
2021,01,24,03,03,-18.30
2021,01,24,03,04,-18.30
2021,01,24,03,05,-18.30
2021,01,24,03,06,-18.30
2021,01,24,03,07,-18.30
2021,01,24,03,08,-18.30
2021,01,24,03,09,-18.30
2021,01,24,03,10,-18.30
2021,01,24,03,11,-18.20
2021,01,24,03,12,-18.20
2021,01,24,03,13,-18.20
2021,01,24,03,14,-18.30
2021,01,24,03,15,-18.30
2021,01,24,03,16,-18.30
2021,01,24,03,17,-18.30
2021,01,24,03,18,-18.30
2021,01,24,03,19,-18.30
2021,01,24,03,20,-18.20
2021,01,24,03,21,-18.20
2021,01,24,03,22,-18.20
2021,01,24,03,23,-18.20
2021,01,24,03,24,-18.20
2021,01,24,03,25,-18.20
2021,01,24,03,26,-18.20
2021,01,24,03,27,-18.20
2021,01,24,03,28,-18.20
2021,01,24,03,29,-18.20
2021,01,24,03,30,-18.20
2021,01,24,03,31,-18.20
2021,01,24,03,32,-18.20
2021,01,24,03,33,-18.20
2021,01,24,03,34,-18.20
2021,01,24,03,35,-18.20
2021,01,24,03,36,-18.20
2021,01,24,03,37,-18.20
2021,01,24,03,38,-18.20
2021,01,24,03,39,-18.20
2021,01,24,03,40,-18.20
2021,01,24,03,41,-18.20
2021,01,24,03,42,-18.10
2021,01,24,03,43,-18.10
2021,01,24,03,44,-18.10
2021,01,24,03,45,-18.10
2021,01,24,03,46,-18.10
2021,01,24,03,47,-18.10
2021,01,24,03,48,-18.10
2021,01,24,03,49,-18.10
2021,01,24,03,50,-18.10
2021,01,24,03,51,-18.10
2021,01,24,03,52,-18.10
2021,01,24,03,53,-18.10
2021,01,24,03,54,-18.10
2021,01,24,03,55,-18.10
2021,01,24,03,56,-18.10
2021,01,24,03,57,-18.10
2021,01,24,03,58,-18.10
2021,01,24,03,59,-18.10
2021,01,24,04,00,-18.10
2021,01,24,04,01,-18.10
2021,01,24,04,02,-18.10
2021,01,24,04,03,-18.10
2021,01,24,04,04,-18.10
2021,01,24,04,05,-18.10
2021,01,24,04,06,-18.20
2021,01,24,04,07,-18.20
2021,01,24,04,08,-18.20
2021,01,24,04,09,-18.20
2021,01,24,04,10,-18.20
2021,01,24,04,11,-18.20
2021,01,24,04,12,-18.20
2021,01,24,04,13,-18.20
2021,01,24,04,14,-18.20
2021,01,24,04,15,-18.20
2021,01,24,04,16,-18.20
2021,01,24,04,17,-18.20
2021,01,24,04,18,-18.10
2021,01,24,04,19,-18.20
2021,01,24,04,20,-18.10
2021,01,24,04,21,-18.10
2021,01,24,04,22,-18.10
2021,01,24,04,23,-18.10
2021,01,24,04,24,-18.10
2021,01,24,04,25,-18.10
2021,01,24,04,26,-18.10
2021,01,24,04,27,-18.10
2021,01,24,04,28,-18.10
2021,01,24,04,29,-18.10
2021,01,24,04,30,-18.10
2021,01,24,04,31,-18.10
2021,01,24,04,32,-18.10
2021,01,24,04,33,-18.10
2021,01,24,04,34,-18.10
2021,01,24,04,35,-18.10
2021,01,24,04,36,-18.10
2021,01,24,04,37,-18.00
2021,01,24,04,38,-18.00
2021,01,24,04,39,-18.00
2021,01,24,04,40,-18.00
2021,01,24,04,41,-18.00
2021,01,24,04,42,-17.90
2021,01,24,04,43,-17.90
2021,01,24,04,44,-17.90
2021,01,24,04,45,-17.90
2021,01,24,04,46,-18.00
2021,01,24,04,47,-18.00
2021,01,24,04,48,-18.00
2021,01,24,04,49,-18.00
2021,01,24,04,50,-18.00
2021,01,24,04,51,-18.00
2021,01,24,04,52,-18.00
2021,01,24,04,53,-18.00
2021,01,24,04,54,-18.00
2021,01,24,04,55,-18.00
2021,01,24,04,56,-18.00
2021,01,24,04,57,-18.00
2021,01,24,04,58,-18.00
2021,01,24,04,59,-18.00
2021,01,24,05,00,-18.00
2021,01,24,05,01,-18.00
2021,01,24,05,02,-18.00
2021,01,24,05,03,-18.00
2021,01,24,05,04,-18.00
2021,01,24,05,05,-18.00
2021,01,24,05,06,-18.00
2021,01,24,05,07,-18.00
2021,01,24,05,08,-18.00
2021,01,24,05,09,-18.00
2021,01,24,05,10,-18.00
2021,01,24,05,11,-18.00
2021,01,24,05,12,-18.00
2021,01,24,05,13,-18.00
2021,01,24,05,14,-18.00
2021,01,24,05,15,-18.00
2021,01,24,05,16,-18.00
2021,01,24,05,17,-18.00
2021,01,24,05,18,-18.00
2021,01,24,05,19,-18.00
2021,01,24,05,20,-18.00
2021,01,24,05,21,-18.00
2021,01,24,05,22,-17.90
2021,01,24,05,23,-17.90
2021,01,24,05,24,-17.90
2021,01,24,05,25,-17.90
2021,01,24,05,26,-17.90
2021,01,24,05,27,-17.90
2021,01,24,05,28,-17.90
2021,01,24,05,29,-17.90
2021,01,24,05,30,-17.90
2021,01,24,05,31,-17.90
2021,01,24,05,32,-17.90
2021,01,24,05,33,-17.90
2021,01,24,05,34,-17.90
2021,01,24,05,35,-17.90
2021,01,24,05,36,-17.90
2021,01,24,05,37,-17.90
2021,01,24,05,38,-17.80
2021,01,24,05,39,-17.80
2021,01,24,05,40,-17.80
2021,01,24,05,41,-17.80
2021,01,24,05,42,-17.80
2021,01,24,05,43,-17.80
2021,01,24,05,44,-17.80
2021,01,24,05,45,-17.80
2021,01,24,05,46,-17.80
2021,01,24,05,47,-17.80
2021,01,24,05,48,-17.80
2021,01,24,05,49,-17.80
2021,01,24,05,50,-17.80
2021,01,24,05,51,-17.80
2021,01,24,05,52,-17.80
2021,01,24,05,53,-17.80
2021,01,24,05,54,-17.80
2021,01,24,05,55,-17.80
2021,01,24,05,56,-17.80
2021,01,24,05,57,-17.80
2021,01,24,05,58,-17.70
2021,01,24,05,59,-17.70
2021,01,24,06,00,-17.70
2021,01,24,06,01,-17.70
2021,01,24,06,02,-17.70
2021,01,24,06,03,-17.70
2021,01,24,06,04,-17.70
2021,01,24,06,05,-17.70
2021,01,24,06,06,-17.70
2021,01,24,06,07,-17.70
2021,01,24,06,08,-17.60
2021,01,24,06,09,-17.60
2021,01,24,06,10,-17.60
2021,01,24,06,11,-17.60
2021,01,24,06,12,-17.60
2021,01,24,06,13,-17.60
2021,01,24,06,14,-17.60
2021,01,24,06,15,-17.60
2021,01,24,06,16,-17.60
2021,01,24,06,17,-17.60
2021,01,24,06,18,-17.60
2021,01,24,06,19,-17.60
2021,01,24,06,20,-17.60
2021,01,24,06,21,-17.60
2021,01,24,06,22,-17.60
2021,01,24,06,23,-17.60
2021,01,24,06,24,-17.60
2021,01,24,06,25,-17.60
2021,01,24,06,26,-17.60
2021,01,24,06,27,-17.60
2021,01,24,06,28,-17.60
2021,01,24,06,29,-17.60
2021,01,24,06,30,-17.60
2021,01,24,06,31,-17.60
2021,01,24,06,32,-17.60
2021,01,24,06,33,-17.60
2021,01,24,06,34,-17.60
2021,01,24,06,35,-17.60
2021,01,24,06,36,-17.60
2021,01,24,06,37,-17.60
2021,01,24,06,38,-17.60
2021,01,24,06,39,-17.60
2021,01,24,06,40,-17.60
2021,01,24,06,41,-17.60
2021,01,24,06,42,-17.60
2021,01,24,06,43,-17.60
2021,01,24,06,44,-17.60
2021,01,24,06,45,-17.60
2021,01,24,06,46,-17.60
2021,01,24,06,47,-17.60
2021,01,24,06,48,-17.60
2021,01,24,06,49,-17.60
2021,01,24,06,50,-17.60
2021,01,24,06,51,-17.60
2021,01,24,06,52,-17.60
2021,01,24,06,53,-17.60
2021,01,24,06,54,-17.60
2021,01,24,06,55,-17.60
2021,01,24,06,56,-17.60
2021,01,24,06,57,-17.70
2021,01,24,06,58,-17.70
2021,01,24,06,59,-17.70
2021,01,24,07,00,-17.70
2021,01,24,07,01,-17.70
2021,01,24,07,02,-17.70
2021,01,24,07,03,-17.70
2021,01,24,07,04,-17.70
2021,01,24,07,05,-17.70
2021,01,24,07,06,-17.70
2021,01,24,07,07,-17.70
2021,01,24,07,08,-17.70
2021,01,24,07,09,-17.80
2021,01,24,07,10,-17.80
2021,01,24,07,11,-17.80
2021,01,24,07,12,-17.80
2021,01,24,07,13,-17.80
2021,01,24,07,14,-17.80
2021,01,24,07,15,-17.80
2021,01,24,07,16,-17.80
2021,01,24,07,17,-17.80
2021,01,24,07,18,-17.80
2021,01,24,07,19,-17.80
2021,01,24,07,20,-17.90
2021,01,24,07,21,-17.90
2021,01,24,07,22,-17.90
2021,01,24,07,23,-17.90
2021,01,24,07,24,-17.90
2021,01,24,07,25,-17.90
2021,01,24,07,26,-17.90
2021,01,24,07,27,-17.90
2021,01,24,07,28,-17.90
2021,01,24,07,29,-17.90
2021,01,24,07,30,-17.90
2021,01,24,07,31,-17.90
2021,01,24,07,32,-17.90
2021,01,24,07,33,-17.90
2021,01,24,07,34,-17.90
2021,01,24,07,35,-17.90
2021,01,24,07,36,-17.90
2021,01,24,07,37,-17.90
2021,01,24,07,38,-17.90
2021,01,24,07,39,-17.90
2021,01,24,07,40,-17.90
2021,01,24,07,41,-17.90
2021,01,24,07,42,-17.90
2021,01,24,07,43,-17.90
2021,01,24,07,44,-17.90
2021,01,24,07,45,-17.90
2021,01,24,07,46,-17.90
2021,01,24,07,47,-17.90
2021,01,24,07,48,-17.90
2021,01,24,07,49,-17.90
2021,01,24,07,50,-17.90
2021,01,24,07,51,-17.90
2021,01,24,07,52,-17.80
2021,01,24,07,53,-17.80
2021,01,24,07,54,-17.80
2021,01,24,07,55,-17.80
2021,01,24,07,56,-17.80
2021,01,24,07,57,-17.80
2021,01,24,07,58,-17.80
2021,01,24,07,59,-17.80
2021,01,24,08,00,-17.80
2021,01,24,08,01,-17.80
2021,01,24,08,02,-17.80
2021,01,24,08,03,-17.80
2021,01,24,08,04,-17.80
2021,01,24,08,05,-17.80
2021,01,24,08,06,-17.80
2021,01,24,08,07,-17.80
2021,01,24,08,08,-17.80
2021,01,24,08,09,-17.80
2021,01,24,08,10,-17.70
2021,01,24,08,11,-17.70
2021,01,24,08,12,-17.70
2021,01,24,08,13,-17.70
2021,01,24,08,14,-17.70
2021,01,24,08,15,-17.70
2021,01,24,08,16,-17.70
2021,01,24,08,17,-17.70
2021,01,24,08,18,-17.70
2021,01,24,08,19,-17.60
2021,01,24,08,20,-17.60
2021,01,24,08,21,-17.60
2021,01,24,08,22,-17.60
2021,01,24,08,23,-17.60
2021,01,24,08,24,-17.60
2021,01,24,08,25,-17.60
2021,01,24,08,26,-17.60
2021,01,24,08,27,-17.60
2021,01,24,08,28,-17.60
2021,01,24,08,29,-17.60
2021,01,24,08,30,-17.60
2021,01,24,08,31,-17.60
2021,01,24,08,32,-17.60
2021,01,24,08,33,-17.60
2021,01,24,08,34,-17.50
2021,01,24,08,35,-17.60
2021,01,24,08,36,-17.60
2021,01,24,08,37,-17.60
2021,01,24,08,38,-17.50
2021,01,24,08,39,-17.50
2021,01,24,08,40,-17.50
2021,01,24,08,41,-17.50
2021,01,24,08,42,-17.50
2021,01,24,08,43,-17.50
2021,01,24,08,44,-17.50
2021,01,24,08,45,-17.50
2021,01,24,08,46,-17.50
2021,01,24,08,47,-17.50
2021,01,24,08,48,-17.40
2021,01,24,08,49,-17.40
2021,01,24,08,50,-17.40
2021,01,24,08,51,-17.40
2021,01,24,08,52,-17.40
2021,01,24,08,53,-17.40
2021,01,24,08,54,-17.40
2021,01,24,08,55,-17.40
2021,01,24,08,56,-17.30
2021,01,24,08,57,-17.30
2021,01,24,08,58,-17.30
2021,01,24,08,59,-17.30
2021,01,24,09,00,-17.30
2021,01,24,09,01,-17.30
2021,01,24,09,02,-17.30
2021,01,24,09,03,-17.30
2021,01,24,09,04,-17.30
2021,01,24,09,05,-17.30
2021,01,24,09,06,-17.30
2021,01,24,09,07,-17.30
2021,01,24,09,08,-17.30
2021,01,24,09,09,-17.30
2021,01,24,09,10,-17.30
2021,01,24,09,11,-17.30
2021,01,24,09,12,-17.30
2021,01,24,09,13,-17.30
2021,01,24,09,14,-17.20
2021,01,24,09,15,-17.20
2021,01,24,09,16,-17.20
2021,01,24,09,17,-17.20
2021,01,24,09,18,-17.20
2021,01,24,09,19,-17.20
2021,01,24,09,20,-17.20
2021,01,24,09,21,-17.20
2021,01,24,09,22,-17.20
2021,01,24,09,23,-17.20
2021,01,24,09,24,-17.20
2021,01,24,09,25,-17.10
2021,01,24,09,26,-17.10
2021,01,24,09,27,-17.10
2021,01,24,09,28,-17.10
2021,01,24,09,29,-17.10
2021,01,24,09,30,-17.10
2021,01,24,09,31,-17.10
2021,01,24,09,32,-17.10
2021,01,24,09,33,-17.10
2021,01,24,09,34,-17.10
2021,01,24,09,35,-17.10
2021,01,24,09,36,-17.00
2021,01,24,09,37,-17.00
2021,01,24,09,38,-17.00
2021,01,24,09,39,-17.00
2021,01,24,09,40,-17.00
2021,01,24,09,41,-17.00
2021,01,24,09,42,-17.00
2021,01,24,09,43,-17.00
2021,01,24,09,44,-16.90
2021,01,24,09,45,-16.90
2021,01,24,09,46,-16.90
2021,01,24,09,47,-16.90
2021,01,24,09,48,-16.90
2021,01,24,09,49,-16.90
2021,01,24,09,50,-16.90
2021,01,24,09,51,-16.90
2021,01,24,09,52,-16.80
2021,01,24,09,53,-16.80
2021,01,24,09,54,-16.80
2021,01,24,09,55,-16.80
2021,01,24,09,56,-16.80
2021,01,24,09,57,-16.80
2021,01,24,09,58,-16.80
2021,01,24,09,59,-16.70
2021,01,24,10,00,-16.70
2021,01,24,10,01,-16.70
2021,01,24,10,02,-16.70
2021,01,24,10,03,-16.70
2021,01,24,10,04,-16.70
2021,01,24,10,05,-16.60
2021,01,24,10,06,-16.60
2021,01,24,10,07,-16.60
2021,01,24,10,08,-16.60
2021,01,24,10,09,-16.60
2021,01,24,10,10,-16.60
2021,01,24,10,11,-16.60
2021,01,24,10,12,-16.50
2021,01,24,10,13,-16.50
2021,01,24,10,14,-16.50
2021,01,24,10,15,-16.50
2021,01,24,10,16,-16.50
2021,01,24,10,17,-16.50
2021,01,24,10,18,-16.40
2021,01,24,10,19,-16.40
2021,01,24,10,20,-16.40
2021,01,24,10,21,-16.40
2021,01,24,10,22,-16.40
2021,01,24,10,23,-16.30
2021,01,24,10,24,-16.30
2021,01,24,10,25,-16.30
2021,01,24,10,26,-16.30
2021,01,24,10,27,-16.30
2021,01,24,10,28,-16.30
2021,01,24,10,29,-16.30
2021,01,24,10,30,-16.30
2021,01,24,10,31,-16.20
2021,01,24,10,32,-16.20
2021,01,24,10,33,-16.20
2021,01,24,10,34,-16.20
2021,01,24,10,35,-16.20
2021,01,24,10,36,-16.20
2021,01,24,10,37,-16.20
2021,01,24,10,38,-16.20
2021,01,24,10,39,-16.20
2021,01,24,10,40,-16.20
2021,01,24,10,41,-16.20
2021,01,24,10,42,-16.10
2021,01,24,10,43,-16.10
2021,01,24,10,44,-16.10
2021,01,24,10,45,-16.10
2021,01,24,10,46,-16.10
2021,01,24,10,47,-16.10
2021,01,24,10,48,-16.10
2021,01,24,10,49,-16.10
2021,01,24,10,50,-16.10
2021,01,24,10,51,-16.10
2021,01,24,10,52,-16.10
2021,01,24,10,53,-16.10
2021,01,24,10,54,-16.10
2021,01,24,10,55,-16.10
2021,01,24,10,56,-16.10
2021,01,24,10,57,-16.00
2021,01,24,10,58,-16.00
2021,01,24,10,59,-16.00
2021,01,24,11,00,-16.00
2021,01,24,11,01,-16.00
2021,01,24,11,02,-16.00
2021,01,24,11,03,-16.00
2021,01,24,11,04,-16.00
2021,01,24,11,05,-16.00
2021,01,24,11,06,-16.00
2021,01,24,11,07,-16.00
2021,01,24,11,08,-15.90
2021,01,24,11,09,-15.90
2021,01,24,11,10,-15.90
2021,01,24,11,11,-15.90
2021,01,24,11,12,-15.90
2021,01,24,11,13,-15.90
2021,01,24,11,14,-15.90
2021,01,24,11,15,-15.90
2021,01,24,11,16,-15.90
2021,01,24,11,17,-15.80
2021,01,24,11,18,-15.80
2021,01,24,11,19,-15.80
2021,01,24,11,20,-15.80
2021,01,24,11,21,-15.80
2021,01,24,11,22,-15.80
2021,01,24,11,23,-15.70
2021,01,24,11,24,-15.70
2021,01,24,11,25,-15.70
2021,01,24,11,26,-15.70
2021,01,24,11,27,-15.70
2021,01,24,11,28,-15.60
2021,01,24,11,29,-15.60
2021,01,24,11,30,-15.60
2021,01,24,11,31,-15.60
2021,01,24,11,32,-15.60
2021,01,24,11,33,-15.50
2021,01,24,11,34,-15.50
2021,01,24,11,35,-15.50
2021,01,24,11,36,-15.50
2021,01,24,11,37,-15.40
2021,01,24,11,38,-15.40
2021,01,24,11,39,-15.40
2021,01,24,11,40,-15.40
2021,01,24,11,41,-15.40
2021,01,24,11,42,-15.40
2021,01,24,11,43,-15.40
2021,01,24,11,44,-15.40
2021,01,24,11,45,-15.40
2021,01,24,11,46,-15.40
2021,01,24,11,47,-15.50
2021,01,24,11,48,-15.50
2021,01,24,11,49,-15.50
2021,01,24,11,50,-15.60
2021,01,24,11,51,-15.60
2021,01,24,11,52,-15.60
2021,01,24,11,53,-15.60
2021,01,24,11,54,-15.60
2021,01,24,11,55,-15.60
2021,01,24,11,56,-15.60
2021,01,24,11,57,-15.70
2021,01,24,11,58,-15.70
2021,01,24,11,59,-15.70
2021,01,24,12,00,-15.70
2021,01,24,12,01,-15.70
2021,01,24,12,02,-15.70
2021,01,24,12,03,-15.70
2021,01,24,12,04,-15.70
2021,01,24,12,05,-15.70
2021,01,24,12,06,-15.70
2021,01,24,12,07,-15.70
2021,01,24,12,08,-15.70
2021,01,24,12,09,-15.70
2021,01,24,12,10,-15.70
2021,01,24,12,11,-15.70
2021,01,24,12,12,-15.60
2021,01,24,12,13,-15.60
2021,01,24,12,14,-15.60
2021,01,24,12,15,-15.60
2021,01,24,12,16,-15.60
2021,01,24,12,17,-15.60
2021,01,24,12,18,-15.50
2021,01,24,12,19,-15.50
2021,01,24,12,20,-15.50
2021,01,24,12,21,-15.50
2021,01,24,12,22,-15.40
2021,01,24,12,23,-15.40
2021,01,24,12,24,-15.40
2021,01,24,12,25,-15.40
2021,01,24,12,26,-15.40
2021,01,24,12,27,-15.40
2021,01,24,12,28,-15.40
2021,01,24,12,29,-15.40
2021,01,24,12,30,-15.40
2021,01,24,12,31,-15.40
2021,01,24,12,32,-15.40
2021,01,24,12,33,-15.40
2021,01,24,12,34,-15.40
2021,01,24,12,35,-15.40
2021,01,24,12,36,-15.40
2021,01,24,12,37,-15.40
2021,01,24,12,38,-15.40
2021,01,24,12,39,-15.40
2021,01,24,12,40,-15.40
2021,01,24,12,41,-15.40
2021,01,24,12,42,-15.40
2021,01,24,12,43,-15.30
2021,01,24,12,44,-15.30
2021,01,24,12,45,-15.30
2021,01,24,12,46,-15.30
2021,01,24,12,47,-15.30
2021,01,24,12,48,-15.20
2021,01,24,12,49,-15.20
2021,01,24,12,50,-15.20
2021,01,24,12,51,-15.20
2021,01,24,12,52,-15.20
2021,01,24,12,53,-15.20
2021,01,24,12,54,-15.20
2021,01,24,12,55,-15.20
2021,01,24,12,56,-15.20
2021,01,24,12,57,-15.20
2021,01,24,12,58,-15.20
2021,01,24,12,59,-15.20
2021,01,24,13,00,-15.20
2021,01,24,13,01,-15.20
2021,01,24,13,02,-15.20
2021,01,24,13,03,-15.20
2021,01,24,13,04,-15.20
2021,01,24,13,05,-15.20
2021,01,24,13,06,-15.20
2021,01,24,13,07,-15.20
2021,01,24,13,08,-15.20
2021,01,24,13,09,-15.20
2021,01,24,13,10,-15.20
2021,01,24,13,11,-15.20
2021,01,24,13,12,-15.20
2021,01,24,13,13,-15.20
2021,01,24,13,14,-15.20
2021,01,24,13,15,-15.20
2021,01,24,13,16,-15.20
2021,01,24,13,17,-15.20
2021,01,24,13,18,-15.20
2021,01,24,13,19,-15.20
2021,01,24,13,20,-15.20
2021,01,24,13,21,-15.20
2021,01,24,13,22,-15.20
2021,01,24,13,23,-15.20
2021,01,24,13,24,-15.20
2021,01,24,13,25,-15.10
2021,01,24,13,26,-15.20
2021,01,24,13,27,-15.20
2021,01,24,13,28,-15.10
2021,01,24,13,29,-15.10
2021,01,24,13,30,-15.10
2021,01,24,13,31,-15.10
2021,01,24,13,32,-15.10
2021,01,24,13,33,-15.10
2021,01,24,13,34,-15.10
2021,01,24,13,35,-15.10
2021,01,24,13,36,-15.10
2021,01,24,13,37,-15.10
2021,01,24,13,38,-15.00
2021,01,24,13,39,-15.00
2021,01,24,13,40,-15.00
2021,01,24,13,41,-15.00
2021,01,24,13,42,-14.90
2021,01,24,13,43,-14.90
2021,01,24,13,44,-14.90
2021,01,24,13,45,-14.90
2021,01,24,13,46,-14.90
2021,01,24,13,47,-14.90
2021,01,24,13,48,-14.80
2021,01,24,13,49,-14.80
2021,01,24,13,50,-14.80
2021,01,24,13,51,-14.80
2021,01,24,13,52,-14.80
2021,01,24,13,53,-14.80
2021,01,24,13,54,-14.80
2021,01,24,13,55,-14.80
2021,01,24,13,56,-14.80
2021,01,24,13,57,-14.70
2021,01,24,13,58,-14.70
2021,01,24,13,59,-14.70
2021,01,24,14,00,-14.70
2021,01,24,14,01,-14.70
2021,01,24,14,02,-14.60
2021,01,24,14,03,-14.60
2021,01,24,14,04,-14.60
2021,01,24,14,05,-14.60
2021,01,24,14,06,-14.50
2021,01,24,14,07,-14.50
2021,01,24,14,08,-14.50
2021,01,24,14,09,-14.50
2021,01,24,14,10,-14.40
2021,01,24,14,11,-14.40
2021,01,24,14,12,-14.40
2021,01,24,14,13,-14.40
2021,01,24,14,14,-14.40
2021,01,24,14,15,-14.30
2021,01,24,14,16,-14.30
2021,01,24,14,17,-14.30
2021,01,24,14,18,-14.30
2021,01,24,14,19,-14.30
2021,01,24,14,20,-14.30
2021,01,24,14,21,-14.30
2021,01,24,14,22,-14.30
2021,01,24,14,23,-14.30
2021,01,24,14,24,-14.30
2021,01,24,14,25,-14.30
2021,01,24,14,26,-14.30
2021,01,24,14,27,-14.20
2021,01,24,14,28,-14.20
2021,01,24,14,29,-14.20
2021,01,24,14,30,-14.20
2021,01,24,14,31,-14.20
2021,01,24,14,32,-14.20
2021,01,24,14,33,-14.20
2021,01,24,14,34,-14.20
2021,01,24,14,35,-14.20
2021,01,24,14,36,-14.20
2021,01,24,14,37,-14.20
2021,01,24,14,38,-14.20
2021,01,24,14,39,-14.20
2021,01,24,14,40,-14.20
2021,01,24,14,41,-14.20
2021,01,24,14,42,-14.20
2021,01,24,14,43,-14.20
2021,01,24,14,44,-14.20
2021,01,24,14,45,-14.20
2021,01,24,14,46,-14.20
2021,01,24,14,47,-14.20
2021,01,24,14,48,-14.20
2021,01,24,14,49,-14.20
2021,01,24,14,50,-14.10
2021,01,24,14,51,-14.10
2021,01,24,14,52,-14.10
2021,01,24,14,53,-14.10
2021,01,24,14,54,-14.10
2021,01,24,14,55,-14.10
2021,01,24,14,56,-14.10
2021,01,24,14,57,-14.10
2021,01,24,14,58,-14.10
2021,01,24,14,59,-14.10
2021,01,24,15,00,-14.10
2021,01,24,15,01,-14.10
2021,01,24,15,02,-14.10
2021,01,24,15,03,-14.10
2021,01,24,15,04,-14.10
2021,01,24,15,05,-14.10
2021,01,24,15,06,-14.10
2021,01,24,15,07,-14.10
2021,01,24,15,08,-14.10
2021,01,24,15,09,-14.10
2021,01,24,15,10,-14.10
2021,01,24,15,11,-14.10
2021,01,24,15,12,-14.10
2021,01,24,15,13,-14.10
2021,01,24,15,14,-14.00
2021,01,24,15,15,-14.00
2021,01,24,15,16,-14.00
2021,01,24,15,17,-14.00
2021,01,24,15,18,-14.00
2021,01,24,15,19,-14.00
2021,01,24,15,20,-14.00
2021,01,24,15,21,-14.00
2021,01,24,15,22,-14.00
2021,01,24,15,23,-14.00
2021,01,24,15,24,-14.00
2021,01,24,15,25,-13.90
2021,01,24,15,26,-13.90
2021,01,24,15,27,-13.90
2021,01,24,15,28,-13.90
2021,01,24,15,29,-13.90
2021,01,24,15,30,-13.90
2021,01,24,15,31,-13.90
2021,01,24,15,32,-13.90
2021,01,24,15,33,-13.90
2021,01,24,15,34,-13.90
2021,01,24,15,35,-13.90
2021,01,24,15,36,-13.90
2021,01,24,15,37,-14.00
2021,01,24,15,38,-14.00
2021,01,24,15,39,-14.00
2021,01,24,15,40,-14.00
2021,01,24,15,41,-14.00
2021,01,24,15,42,-14.00
2021,01,24,15,43,-14.00
2021,01,24,15,44,-14.00
2021,01,24,15,45,-14.00
2021,01,24,15,46,-14.00
2021,01,24,15,47,-14.00
2021,01,24,15,48,-14.00
2021,01,24,15,49,-14.00
2021,01,24,15,50,-14.00
2021,01,24,15,51,-14.00
2021,01,24,15,52,-14.00
2021,01,24,15,53,-14.00
2021,01,24,15,54,-14.00
2021,01,24,15,55,-13.90
2021,01,24,15,56,-13.90
2021,01,24,15,57,-14.00
2021,01,24,15,58,-13.90
2021,01,24,15,59,-13.90
2021,01,24,16,00,-13.90
2021,01,24,16,01,-14.00
2021,01,24,16,02,-14.00
2021,01,24,16,03,-14.00
2021,01,24,16,04,-14.00
2021,01,24,16,05,-14.00
2021,01,24,16,06,-14.00
2021,01,24,16,07,-14.00
2021,01,24,16,08,-14.00
2021,01,24,16,09,-14.00
2021,01,24,16,10,-14.00
2021,01,24,16,11,-14.00
2021,01,24,16,12,-14.00
2021,01,24,16,13,-14.00
2021,01,24,16,14,-14.00
2021,01,24,16,15,-14.00
2021,01,24,16,16,-14.00
2021,01,24,16,17,-14.00
2021,01,24,16,18,-14.00
2021,01,24,16,19,-14.00
2021,01,24,16,20,-14.00
2021,01,24,16,21,-14.00
2021,01,24,16,22,-14.00
2021,01,24,16,23,-14.00
2021,01,24,16,24,-14.00
2021,01,24,16,25,-14.00
2021,01,24,16,26,-14.00
2021,01,24,16,27,-14.00
2021,01,24,16,28,-14.00
2021,01,24,16,29,-14.00
2021,01,24,16,30,-14.00
2021,01,24,16,31,-14.00
2021,01,24,16,32,-14.00
2021,01,24,16,33,-14.00
2021,01,24,16,34,-14.00
2021,01,24,16,35,-14.00
2021,01,24,16,36,-14.00